This is the latest recevied weather packets stored in our database for station/object IZ6UQU-13. If no packets are shown the sender has not sent any weather packets the latest 10 day(s).
| Time | Temp. | Humidity | Pressure | Rain* | Wind** | Luminosity | Snow |
|---|---|---|---|---|---|---|---|
| 1777659605 | 9.44° C | 43% | 962.3 hPa | 0 mm | - | - | - |
| 1777659304 | 10° C | 40% | 962.1 hPa | 0 mm | - | - | - |
| 1777659005 | 9.44° C | 44% | 961.9 hPa | 0 mm | - | - | - |
| 1777658704 | 10° C | 44% | 961.9 hPa | 0 mm | - | - | - |
| 1777658405 | 10° C | 43% | 961.9 hPa | 0 mm | - | - | - |
| 1777658105 | 10° C | 43% | 961.9 hPa | 0 mm | - | - | - |
| 1777657805 | 10.56° C | 42% | 961.8 hPa | 0 mm | - | - | - |
| 1777657504 | 10.56° C | 42% | 961.8 hPa | 0 mm | - | - | - |
| 1777657204 | 11.11° C | 42% | 961.7 hPa | 0 mm | - | - | - |
| 1777656904 | 11.11° C | 43% | 961.7 hPa | 0 mm | - | - | - |
| 1777656604 | 11.67° C | 42% | 961.7 hPa | 0 mm | - | - | - |
| 1777656304 | 11.67° C | 42% | 961.6 hPa | 0 mm | - | - | - |
| 1777656004 | 11.67° C | 42% | 961.5 hPa | 0 mm | - | - | - |
| 1777655704 | 11.67° C | 42% | 961.5 hPa | 0 mm | - | - | - |
| 1777655405 | 12.22° C | 40% | 961.5 hPa | 0 mm | - | - | - |
| 1777655104 | 12.22° C | 40% | 961.4 hPa | 0 mm | - | - | - |
| 1777654804 | 12.22° C | 40% | 961.3 hPa | 0 mm | - | - | - |
| 1777654504 | 12.22° C | 40% | 961.3 hPa | 0 mm | - | - | - |
| 1777654204 | 12.22° C | 40% | 961.3 hPa | 0 mm | - | - | - |
| 1777653904 | 12.22° C | 40% | 961.3 hPa | 0 mm | - | - | - |
| 1777653604 | 12.22° C | 38% | 961.3 hPa | 0 mm | - | - | - |
| 1777653304 | 12.22° C | 40% | 961.2 hPa | 0 mm | - | - | - |
| 1777653004 | 12.22° C | 40% | 961.1 hPa | 0 mm | - | - | - |
| 1777652704 | 12.22° C | 40% | 961 hPa | 0 mm | - | - | - |
| 1777652404 | 12.22° C | 39% | 961.1 hPa | 0 mm | - | - | - |
* Rain latest hour (hover to see other rain measurements)
** Current wind speed in m/s (hover to see current wind gust speed)